This demonstration page uses our WeatherBlox Daily Observations layout. Learn more.

Left ArrowRight Arrow

Hourly Observations for December 28, 2020

Temp ( °F °C ) Dew Point ( °F °C ) Humidity (%) Winds ( mph kmh ) Pressure ( in mb ) Visibility ( mi km ) Precip ( " mm )
12:54 am 00:54 Cloudy 27 -2.8 18 -7.8 69 69 N 13 20 30.28 1025 10 16.0934 0 0
1:54 am 01:54 Cloudy 25 -3.9 17 -8.3 72 72 N 12 19 30.29 1026 10 16.0934 0 0
2:54 am 02:54 Cloudy 25 -3.9 17 -8.3 72 72 N 8 13 30.32 1027 10 16.0934 0 0
3:54 am 03:54 Cloudy 25 -3.9 17 -8.3 72 72 NNW 9 15 30.34 1027 10 16.0934 0 0
4:54 am 04:54 Cloudy 25 -3.9 16 -8.9 69 69 NNW 13 20 30.35 1028 10 16.0934 0 0
5:54 am 05:54 Cloudy 25 -3.9 17 -8.3 72 72 NNW 12 19 30.38 1029 10 16.0934 0 0
6:54 am 06:54 Cloudy 24 -4.4 16 -8.9 71 71 NNE 7 11 30.4 1029 10 16.0934 0 0
7:37 am 07:37 Cloudy 24 -4.4 16 -8.9 71 71 NNE 10 17 30.43 1031 10 16.0934 0 0
7:54 am 07:54 Cloudy 24 -4.4 16 -8.9 71 71 NNW 7 11 30.42 1030 10 16.0934 0 0
8:43 am 08:43 Cloudy 25 -3.9 16 -8.9 69 69 NNW 5 7 30.49 1033 10 16.0934 0 0
8:54 am 08:54 Cloudy 25 -3.9 16 -8.9 69 69 N 6 9 30.46 1031 10 16.0934 0 0
9:54 am 09:54 Cloudy 26 -3.3 17 -8.3 69 69 N 6 9 30.48 1032 10 16.0934 0 0
10:01 am 10:01 Cloudy 26 -3.3 17 -8.3 69 69 N 5 7 30.52 1033 10 16.0934 0 0
10:54 am 10:54 Cloudy 27 -2.8 17 -8.3 66 66 NW 3 6 30.5 1033 10 16.0934 0 0
11:01 am 11:01 Cloudy 27 -2.8 17 -8.3 66 66 NNW 3 6 30.52 1034 10 16.0934 0 0
11:54 am 11:54 Cloudy 28 -2.2 18 -7.8 66 66 NW 6 9 30.49 1033 10 16.0934 0 0
12:54 pm 12:54 Cloudy 31 -0.6 19 -7.2 61 61 VRB 3 6 30.48 1032 10 16.0934 0 0
1:54 pm 13:54 Mostly Sunny 33 0.6 19 -7.2 56 56 N 6 9 30.46 1032 10 16.0934 0 0
2:54 pm 14:54 Sunny 34 1.1 19 -7.2 54 54 NNE 3 6 30.47 1032 10 16.0934 0 0
3:54 pm 15:54 Sunny 33 0.6 19 -7.2 56 56 N 6 9 30.47 1032 10 16.0934 0 0
4:54 pm 16:54 Sunny 27 -2.8 17 -8.3 66 66 NE 6 9 30.49 1033 10 16.0934 0 0
5:54 pm 17:54 Clear 27 -2.8 17 -8.3 66 66 E 5 7 30.5 1033 10 16.0934 0 0
6:54 pm 18:54 Clear 27 -2.8 18 -7.8 69 69 ESE 3 6 30.49 1033 10 16.0934 0 0
7:54 pm 19:54 Clear 26 -3.3 18 -7.8 71 71 ESE 6 9 30.48 1032 10 16.0934 0 0
8:54 pm 20:54 Clear 27 -2.8 18 -7.8 69 69 SE 7 11 30.5 1033 10 16.0934 0 0
9:54 pm 21:54 Clear 26 -3.3 18 -7.8 71 71 SSE 6 9 30.5 1033 10 16.0934 0 0
10:54 pm 22:54 Mostly Cloudy 26 -3.3 17 -8.3 69 69 SE 9 15 30.48 1032 10 16.0934 0 0
11:54 pm 23:54 Cloudy 27 -2.8 17 -8.3 66 66 SSE 9 15 30.48 1032 10 16.0934 0 0

Powered by AerisWeather